| time (UTC) | temp F | wind direction | speed MPH | gust MPH | rain 1hr in | rain 24hr in | rain mn in | humidity % | barometer mb |
| 20260904145307 | 58 | 291 | 4.0 | 14.0 | 0.01 | 0.06 | 0.06 | 80 | 1009.6 |
| 20260904144807 | 58 | 338 | 4.0 | 13.0 | 0.02 | 0.06 | 0.06 | 80 | 1009.4 |
| 20260904143806 | 58 | 269 | 6.0 | 14.0 | 0.03 | 0.06 | 0.06 | 80 | 1009.4 |
| 20260904143307 | 58 | 0 | 6.0 | 12.0 | 0.03 | 0.06 | 0.06 | 82 | 1009.6 |
| 20260904142807 | 58 | 0 | 4.0 | 12.0 | 0.03 | 0.06 | 0.06 | 83 | 1009.8 |
| 20260904142309 | 57 | 315 | 5.0 | 9.0 | 0.03 | 0.06 | 0.06 | 83 | 1009.8 |
| 20260904141307 | 57 | 338 | 4.0 | 13.0 | 0.03 | 0.06 | 0.06 | 85 | 1010.0 |
| 20260904140806 | 57 | 318 | 3.0 | 10.0 | 0.03 | 0.06 | 0.06 | 85 | 1009.9 |
| 20260904140306 | 58 | 315 | 3.0 | 9.0 | 0.03 | 0.06 | 0.06 | 84 | 1010.1 |
| 20260904135807 | 58 | 277 | 2.0 | 7.0 | 0.02 | 0.05 | 0.05 | 83 | 1010.3 |
| 20260904135307 | 58 | 19 | 2.0 | 6.0 | 0.02 | 0.05 | 0.05 | 82 | 1010.3 |
| 20260904134807 | 59 | 316 | 3.0 | 9.0 | 0.01 | 0.04 | 0.04 | 80 | 1010.1 |
| 20260904134306 | 58 | 317 | 3.0 | 8.0 | 0.00 | 0.03 | 0.03 | 79 | 1010.5 |
| 20260904133806 | 58 | 274 | 3.0 | 9.0 | 0.00 | 0.03 | 0.03 | 79 | 1010.7 |
| 20260904133306 | 58 | 20 | 3.0 | 9.0 | 0.00 | 0.03 | 0.03 | 79 | 1010.9 |
| 20260904132807 | 59 | 159 | 3.0 | 9.0 | 0.00 | 0.03 | 0.03 | 78 | 1010.6 |
| 20260904132308 | 59 | 312 | 4.0 | 8.0 | 0.00 | 0.03 | 0.03 | 78 | 1010.8 |
| 20260904131807 | 59 | 0 | 5.0 | 13.0 | 0.00 | 0.03 | 0.03 | 78 | 1010.7 |
| 20260904131306 | 59 | 249 | 4.0 | 12.0 | 0.00 | 0.03 | 0.03 | 78 | 1010.6 |
| 20260904130806 | 59 | 43 | 5.0 | 15.0 | 0.00 | 0.03 | 0.03 | 78 | 1010.9 |
| 20260904130307 | 58 | 317 | 5.0 | 12.0 | 0.00 | 0.03 | 0.03 | 78 | 1011.1 |
| 20260904125306 | 58 | 41 | 5.0 | 9.0 | 0.00 | 0.03 | 0.03 | 79 | 1011.3 |
| 20260904124806 | 58 | 1 | 4.0 | 7.0 | 0.00 | 0.03 | 0.03 | 79 | 1011.3 |
| 20260904123307 | 58 | 67 | 5.0 | 10.0 | 0.01 | 0.03 | 0.03 | 80 | 1011.4 |
| 20260904122809 | 58 | 43 | 5.0 | 10.0 | 0.01 | 0.03 | 0.03 | 80 | 1011.5 |
| 20260904122307 | 58 | 337 | 6.0 | 10.0 | 0.01 | 0.03 | 0.03 | 80 | 1011.7 |
| 20260904121806 | 58 | 3 | 6.0 | 13.0 | 0.01 | 0.03 | 0.03 | 80 | 1011.9 |
| 20260904120806 | 58 | 2 | 1.0 | 6.0 | 0.01 | 0.03 | 0.03 | 80 | 1011.9 |
| 20260904120306 | 57 | 316 | 3.0 | 8.0 | 0.01 | 0.03 | 0.03 | 80 | 1012.0 |
| 20260904115307 | 57 | 338 | 5.0 | 9.0 | 0.01 | 0.03 | 0.03 | 81 | 1011.7 |
| 20260904114806 | 57 | 317 | 3.0 | 7.0 | 0.01 | 0.03 | 0.03 | 81 | 1011.8 |
| 20260904113806 | 58 | 336 | 5.0 | 13.0 | 0.00 | 0.02 | 0.02 | 77 | 1012.6 |
| 20260904113307 | 58 | 44 | 3.0 | 8.0 | 0.00 | 0.02 | 0.02 | 75 | 1012.8 |
| 20260904112807 | 59 | 335 | 3.0 | 8.0 | 0.00 | 0.02 | 0.02 | 73 | 1012.7 |
| 20260904112306 | 59 | 317 | 4.0 | 9.0 | 0.00 | 0.02 | 0.02 | 72 | 1013.0 |
| 20260904111806 | 58 | 25 | 5.0 | 10.0 | 0.01 | 0.02 | 0.02 | 72 | 1012.9 |
| 20260904111307 | 58 | 341 | 3.0 | 8.0 | 0.01 | 0.02 | 0.02 | 73 | 1013.1 |
| 20260904110807 | 58 | 337 | 2.0 | 9.0 | 0.01 | 0.02 | 0.02 | 73 | 1013.0 |
| 20260904110307 | 58 | 357 | 5.0 | 12.0 | 0.02 | 0.02 | 0.02 | 73 | 1013.0 |
| 20260904105808 | 58 | 0 | 6.0 | 10.0 | 0.02 | 0.02 | 0.02 | 73 | 1013.2 |
| 20260904105307 | 58 | 41 | 5.0 | 9.0 | 0.02 | 0.02 | 0.02 | 74 | 1013.2 |
| 20260904104307 | 58 | 0 | 3.0 | 12.0 | 0.02 | 0.02 | 0.02 | 75 | 1013.1 |
| 20260904103807 | 57 | 42 | 5.0 | 10.0 | 0.02 | 0.02 | 0.02 | 76 | 1013.1 |
| 20260904102807 | 57 | 314 | 3.0 | 12.0 | 0.02 | 0.02 | 0.02 | 76 | 1013.2 |
| 20260904102307 | 57 | 43 | 3.0 | 6.0 | 0.02 | 0.02 | 0.02 | 78 | 1013.2 |
| 20260904101806 | 57 | 297 | 3.0 | 8.0 | 0.01 | 0.01 | 0.01 | 76 | 1013.5 |
| 20260904101309 | 58 | 272 | 3.0 | 8.0 | 0.01 | 0.01 | 0.01 | 75 | 1013.4 |
| 20260904100307 | 58 | 110 | 5.0 | 9.0 | 0.00 | 0.00 | 0.00 | 72 | 1013.3 |
| 20260904095808 | 58 | 0 | 5.0 | 7.0 | 0.00 | 0.00 | 0.00 | 74 | 1013.0 |
| 20260904095306 | 58 | 314 | 3.0 | 7.0 | 0.00 | 0.00 | 0.00 | 75 | 1013.3 |
| 20260904094806 | 58 | 23 | 1.0 | 6.0 | 0.00 | 0.00 | 0.00 | 74 | 1013.1 |
| 20260904094307 | 58 | 4 | 3.0 | 9.0 | 0.00 | 0.00 | 0.00 | 73 | 1013.3 |
| 20260904093307 | 59 | 337 | 3.0 | 8.0 | 0.00 | 0.00 | 0.00 | 69 | 1013.6 |
| 20260904092807 | 59 | 339 | 3.0 | 7.0 | 0.00 | 0.00 | 0.00 | 68 | 1013.6 |
| 20260904092307 | 58 | 358 | 2.0 | 6.0 | 0.00 | 0.00 | 0.00 | 68 | 1013.6 |
| 20260904091806 | 58 | 16 | 2.0 | 7.0 | 0.00 | 0.00 | 0.00 | 68 | 1013.5 |
| 20260904091306 | 58 | 22 | 3.0 | 7.0 | 0.00 | 0.00 | 0.00 | 68 | 1013.5 |
| 20260904090807 | 58 | 0 | 2.0 | 5.0 | 0.00 | 0.00 | 0.00 | 67 | 1013.7 |
| 20260904090307 | 58 | 315 | 3.0 | 6.0 | 0.00 | 0.00 | 0.00 | 67 | 1013.5 |
| 20260904085807 | 58 | 19 | 1.0 | 5.0 | 0.00 | 0.00 | 0.00 | 67 | 1013.6 |
| 20260904085307 | 58 | 339 | 3.0 | 7.0 | 0.00 | 0.00 | 0.00 | 67 | 1013.5 |
| 20260904084807 | 58 | 0 | 3.0 | 7.0 | 0.00 | 0.00 | 0.00 | 66 | 1013.5 |
| 20260904084307 | 58 | 22 | 3.0 | 6.0 | 0.00 | 0.00 | 0.00 | 66 | 1013.7 |
| 20260904083807 | 58 | 350 | 2.0 | 7.0 | 0.00 | 0.00 | 0.00 | 66 | 1013.8 |
| 20260904083307 | 58 | 318 | 3.0 | 7.0 | 0.00 | 0.00 | 0.00 | 66 | 1013.5 |
| 20260904082807 | 58 | 356 | 2.0 | 6.0 | 0.00 | 0.00 | 0.00 | 66 | 1013.4 |
| 20260904082307 | 58 | 23 | 3.0 | 6.0 | 0.00 | 0.00 | 0.00 | 65 | 1013.8 |
| 20260904081807 | 58 | 315 | 1.0 | 7.0 | 0.00 | 0.00 | 0.00 | 65 | 1013.6 |
| 20260904080807 | 59 | 1 | 2.0 | 7.0 | 0.00 | 0.00 | 0.00 | 64 | 1013.8 |
| 20260904080307 | 59 | 65 | 2.0 | 6.0 | 0.00 | 0.00 | 0.00 | 64 | 1013.7 |
| 20260904075307 | 60 | 19 | 3.0 | 6.0 | 0.00 | 0.00 | 0.00 | 63 | 1014.0 |
| 20260904074307 | 60 | 21 | 3.0 | 6.0 | 0.00 | 0.00 | 0.00 | 62 | 1014.2 |
| 20260904073806 | 60 | 276 | 1.0 | 7.0 | 0.00 | 0.00 | 0.00 | 62 | 1014.1 |
| 20260904073306 | 60 | 358 | 3.0 | 7.0 | 0.00 | 0.00 | 0.00 | 61 | 1014.2 |
| 20260904072807 | 60 | 317 | 3.0 | 7.0 | 0.00 | 0.00 | 0.00 | 61 | 1014.4 |
| 20260904072308 | 60 | 21 | 3.0 | 6.0 | 0.00 | 0.00 | 0.00 | 60 | 1014.3 |
| 20260904071806 | 61 | 359 | 3.0 | 7.0 | 0.00 | 0.00 | 0.00 | 60 | 1014.4 |
| 20260904071306 | 61 | 357 | 3.0 | 9.0 | 0.00 | 0.00 | 0.00 | 60 | 1014.3 |
| 20260904070806 | 61 | 1 | 5.0 | 10.0 | 0.00 | 0.00 | 0.00 | 59 | 1014.3 |
| 20260904070307 | 61 | 291 | 5.0 | 10.0 | 0.00 | 0.00 | 0.00 | 59 | 1014.4 |
| 20260904065806 | 61 | 116 | 2.0 | 9.0 | 0.00 | 0.00 | 0.00 | 60 | 1014.6 |
| 20260904065307 | 61 | 318 | 3.0 | 8.0 | 0.00 | 0.00 | 0.00 | 59 | 1014.6 |
| 20260904064806 | 61 | 339 | 3.0 | 9.0 | 0.00 | 0.00 | 0.00 | 58 | 1014.6 |
| 20260904064308 | 61 | 315 | 3.0 | 12.0 | 0.00 | 0.00 | 0.00 | 57 | 1014.6 |
| 20260904063806 | 61 | 269 | 5.0 | 13.0 | 0.00 | 0.00 | 0.00 | 57 | 1014.8 |
| 20260904063307 | 62 | 336 | 4.0 | 10.0 | 0.00 | 0.00 | 0.00 | 57 | 1014.9 |
| 20260904062807 | 62 | 314 | 5.0 | 12.0 | 0.00 | 0.00 | 0.00 | 56 | 1014.8 |
| 20260904061807 | 62 | 290 | 2.0 | 7.0 | 0.00 | 0.00 | 0.00 | 56 | 1014.8 |
| 20260904061307 | 63 | 290 | 4.0 | 8.0 | 0.00 | 0.00 | 0.00 | 56 | 1015.0 |
| 20260904060807 | 63 | 313 | 4.0 | 9.0 | 0.00 | 0.00 | 0.00 | 55 | 1015.0 |
| 20260904060306 | 63 | 179 | 3.0 | 8.0 | 0.00 | 0.00 | 0.00 | 55 | 1015.0 |
| 20260904055808 | 64 | 337 | 3.0 | 7.0 | 0.00 | 0.00 | 0.00 | 55 | 1015.1 |
| 20260904055307 | 64 | 290 | 2.0 | 7.0 | 0.00 | 0.00 | 0.00 | 54 | 1015.0 |
| 20260904054806 | 64 | 274 | 3.0 | 7.0 | 0.00 | 0.00 | 0.00 | 54 | 1015.1 |
| 20260904054307 | 64 | 293 | 2.0 | 6.0 | 0.00 | 0.00 | 0.00 | 54 | 1015.5 |
| 20260904053806 | 64 | 269 | 2.0 | 8.0 | 0.00 | 0.00 | 0.00 | 53 | 1015.2 |
| 20260904052807 | 64 | 293 | 1.0 | 5.0 | 0.00 | 0.00 | 0.00 | 53 | 1015.3 |
| 20260904052308 | 63 | 314 | 1.0 | 3.0 | 0.00 | 0.00 | 0.00 | 53 | 1015.4 |
| 20260904051807 | 64 | 0 | 1.0 | 10.0 | 0.00 | 0.00 | 0.00 | 53 | 1015.5 |
| 20260904051307 | 64 | 359 | 5.0 | 10.0 | 0.00 | 0.00 | 0.00 | 51 | 1015.6 |
| 20260904050809 | 64 | 341 | 4.0 | 9.0 | 0.00 | 0.00 | 0.00 | 51 | 1015.8 |
| 20260904050307 | 65 | 67 | 4.0 | 12.0 | 0.00 | 0.00 | 0.00 | 50 | 1015.6 |
| 20260904045808 | 64 | 65 | 3.0 | 6.0 | 0.00 | 0.00 | 0.00 | 51 | 1015.6 |
| 20260904045307 | 65 | 294 | 3.0 | 6.0 | 0.00 | 0.00 | 0.00 | 50 | 1015.4 |
| 20260904044806 | 64 | 335 | 2.0 | 8.0 | 0.00 | 0.00 | 0.00 | 50 | 1015.4 |
| 20260904044308 | 64 | 43 | 1.0 | 7.0 | 0.00 | 0.00 | 0.00 | 51 | 1015.7 |
| 20260904043307 | 65 | 21 | 2.0 | 5.0 | 0.00 | 0.00 | 0.00 | 49 | 1015.8 |
| 20260904042807 | 65 | 42 | 2.0 | 6.0 | 0.00 | 0.00 | 0.00 | 48 | 1015.5 |
| 20260904042306 | 66 | 247 | 2.0 | 6.0 | 0.00 | 0.00 | 0.00 | 48 | 1015.8 |
| 20260904041807 | 67 | 252 | 2.0 | 5.0 | 0.00 | 0.00 | 0.00 | 46 | 1015.8 |
| 20260904040306 | 66 | 90 | 3.0 | 7.0 | 0.00 | 0.00 | 0.00 | 46 | 1015.7 |
| 20260904034806 | 65 | 89 | 5.0 | 14.0 | 0.00 | 0.00 | 0.00 | 47 | 1015.9 |
| 20260904033808 | 65 | 44 | 2.0 | 6.0 | 0.00 | 0.00 | 0.00 | 47 | 1016.0 |
| 20260904033307 | 65 | 92 | 2.0 | 7.0 | 0.00 | 0.00 | 0.00 | 48 | 1016.1 |
| 20260904032308 | 66 | 42 | 2.0 | 5.0 | 0.00 | 0.00 | 0.00 | 46 | 1016.5 |
| 20260904031806 | 64 | 291 | 1.0 | 6.0 | 0.00 | 0.00 | 0.00 | 47 | 1016.4 |
| 20260904030807 | 66 | 311 | 2.0 | 10.0 | 0.00 | 0.00 | 0.00 | 45 | 1016.6 |
| 20260904030308 | 66 | 294 | 3.0 | 7.0 | 0.00 | 0.00 | 0.00 | 45 | 1016.6 |
| 20260904025307 | 64 | 19 | 2.0 | 6.0 | 0.00 | 0.00 | 0.00 | 46 | 1016.7 |
| 20260904024807 | 64 | 292 | 2.0 | 6.0 | 0.00 | 0.00 | 0.00 | 47 | 1017.0 |
| 20260904024307 | 63 | 86 | 2.0 | 7.0 | 0.00 | 0.00 | 0.00 | 48 | 1017.0 |
| 20260904023808 | 64 | 357 | 3.0 | 7.0 | 0.00 | 0.00 | 0.00 | 46 | 1017.1 |
| 20260904023307 | 64 | 312 | 2.0 | 10.0 | 0.00 | 0.00 | 0.00 | 46 | 1017.1 |
| 20260904022806 | 63 | 359 | 3.0 | 7.0 | 0.00 | 0.00 | 0.00 | 47 | 1017.1 |
| 20260904022306 | 62 | 338 | 3.0 | 8.0 | 0.00 | 0.00 | 0.00 | 48 | 1017.2 |
| 20260904021807 | 62 | 337 | 2.0 | 7.0 | 0.00 | 0.00 | 0.00 | 48 | 1017.5 |
| 20260904021306 | 63 | 250 | 2.0 | 7.0 | 0.00 | 0.00 | 0.00 | 47 | 1017.5 |
| 20260904020307 | 63 | 314 | 3.0 | 7.0 | 0.00 | 0.00 | 0.00 | 45 | 1017.7 |
| 20260904015307 | 63 | 252 | 1.0 | 5.0 | 0.00 | 0.00 | 0.00 | 45 | 1018.1 |
| 20260904014806 | 63 | 246 | 2.0 | 6.0 | 0.00 | 0.00 | 0.00 | 44 | 1018.1 |
| 20260904014307 | 63 | 269 | 1.0 | 10.0 | 0.00 | 0.00 | 0.00 | 44 | 1018.4 |
| 20260904013806 | 63 | 314 | 2.0 | 7.0 | 0.00 | 0.01 | 0.00 | 44 | 1018.3 |
| 20260904012806 | 62 | 290 | 2.0 | 9.0 | 0.00 | 0.03 | 0.00 | 45 | 1018.3 |
| 20260904012306 | 62 | 267 | 3.0 | 6.0 | 0.00 | 0.03 | 0.00 | 44 | 1018.4 |
| 20260904011807 | 62 | 246 | 2.0 | 6.0 | 0.00 | 0.03 | 0.00 | 44 | 1018.3 |
| 20260904011307 | 62 | 340 | 3.0 | 6.0 | 0.00 | 0.03 | 0.00 | 44 | 1018.3 |
| 20260904010308 | 61 | 277 | 2.0 | 7.0 | 0.00 | 0.03 | 0.00 | 47 | 1018.3 |
| 20260904005307 | 61 | 275 | 2.0 | 5.0 | 0.00 | 0.03 | 0.00 | 47 | 1018.7 |
| 20260904004806 | 60 | 47 | 2.0 | 7.0 | 0.00 | 0.03 | 0.00 | 47 | 1019.0 |
| 20260904004307 | 61 | 315 | 2.0 | 6.0 | 0.00 | 0.03 | 0.00 | 47 | 1019.2 |
| 20260904003808 | 60 | 268 | 1.0 | 8.0 | 0.00 | 0.03 | 0.00 | 48 | 1019.1 |
| 20260904003306 | 61 | 289 | 1.0 | 5.0 | 0.00 | 0.03 | 0.00 | 47 | 1019.3 |
| 20260904002806 | 61 | 315 | 2.0 | 6.0 | 0.00 | 0.03 | 0.00 | 46 | 1019.5 |
| 20260904002307 | 61 | 359 | 3.0 | 8.0 | 0.00 | 0.03 | 0.00 | 47 | 1019.4 |
| 20260904001806 | 61 | 250 | 3.0 | 7.0 | 0.00 | 0.03 | 0.00 | 48 | 1019.6 |
| 20260904001308 | 60 | 339 | 2.0 | 7.0 | 0.00 | 0.03 | 0.00 | 49 | 1019.4 |
| 20260904000806 | 60 | 90 | 3.0 | 8.0 | 0.00 | 0.03 | 0.00 | 49 | 1019.5 |
| 20260904000307 | 60 | 335 | 3.0 | 8.0 | 0.00 | 0.03 | 0.00 | 50 | 1019.6 |
| 20260903235808 | 59 | 358 | 4.0 | 9.0 | 0.00 | 0.03 | 0.00 | 50 | 1019.7 |
| 20260903235307 | 60 | 338 | 3.0 | 7.0 | 0.00 | 0.03 | 0.00 | 50 | 1019.7 |
| 20260903234807 | 59 | 21 | 2.0 | 6.0 | 0.00 | 0.03 | 0.00 | 51 | 1019.6 |
| 20260903234307 | 59 | 339 | 3.0 | 6.0 | 0.00 | 0.03 | 0.00 | 51 | 1019.5 |
| 20260903233806 | 59 | 335 | 2.0 | 6.0 | 0.00 | 0.03 | 0.00 | 51 | 1019.6 |
| 20260903233308 | 59 | 316 | 2.0 | 7.0 | 0.00 | 0.03 | 0.00 | 53 | 1019.8 |
| 20260903232807 | 58 | 235 | 2.0 | 7.0 | 0.00 | 0.03 | 0.00 | 55 | 1019.5 |
| 20260903231807 | 57 | 250 | 2.0 | 6.0 | 0.00 | 0.03 | 0.00 | 57 | 1020.1 |
| 20260903231307 | 58 | 22 | 1.0 | 5.0 | 0.00 | 0.03 | 0.00 | 58 | 1020.3 |
| 20260903230307 | 56 | 359 | 2.0 | 6.0 | 0.00 | 0.03 | 0.00 | 59 | 1020.0 |
| 20260903225806 | 56 | 336 | 2.0 | 6.0 | 0.00 | 0.03 | 0.03 | 59 | 1020.2 |
| 20260903225307 | 56 | 155 | 1.0 | 5.0 | 0.00 | 0.03 | 0.03 | 61 | 1020.0 |
| 20260903224806 | 55 | 114 | 2.0 | 3.0 | 0.00 | 0.03 | 0.03 | 63 | 1020.2 |
| 20260903223806 | 54 | 299 | 1.0 | 5.0 | 0.00 | 0.03 | 0.03 | 65 | 1020.0 |
| 20260903223306 | 54 | 326 | 2.0 | 5.0 | 0.00 | 0.03 | 0.03 | 65 | 1020.3 |
| 20260903222806 | 53 | 293 | 1.0 | 3.0 | 0.00 | 0.03 | 0.03 | 66 | 1020.3 |
| 20260903222307 | 52 | 316 | 1.0 | 2.0 | 0.00 | 0.03 | 0.03 | 67 | 1020.2 |
| 20260903221807 | 51 | 291 | 1.0 | 3.0 | 0.00 | 0.03 | 0.03 | 68 | 1020.2 |
| 20260903220806 | 50 | 316 | 1.0 | 5.0 | 0.00 | 0.03 | 0.03 | 70 | 1020.0 |
| 20260903220308 | 49 | 337 | 1.0 | 2.0 | 0.00 | 0.03 | 0.03 | 72 | 1019.7 |
| 20260903215807 | 48 | 342 | 1.0 | 2.0 | 0.00 | 0.03 | 0.03 | 72 | 1019.7 |
| 20260903215306 | 48 | 324 | 2.0 | 5.0 | 0.00 | 0.03 | 0.03 | 73 | 1019.8 |
| 20260903214806 | 47 | 204 | 1.0 | 3.0 | 0.00 | 0.03 | 0.03 | 74 | 1019.8 |
| 20260903214307 | 46 | 299 | 1.0 | 3.0 | 0.00 | 0.03 | 0.03 | 75 | 1019.4 |
| 20260903213307 | 44 | 312 | 1.0 | 3.0 | 0.00 | 0.03 | 0.03 | 79 | 1019.4 |
| 20260903212808 | 44 | 320 | 1.0 | 3.0 | 0.00 | 0.03 | 0.03 | 80 | 1019.3 |
| 20260903212307 | 44 | 250 | 1.0 | 2.0 | 0.00 | 0.03 | 0.03 | 80 | 1019.3 |
| 20260903211806 | 43 | 45 | 1.0 | 3.0 | 0.00 | 0.03 | 0.03 | 81 | 1019.1 |
| 20260903211306 | 43 | 316 | 1.0 | 2.0 | 0.00 | 0.03 | 0.03 | 81 | 1019.2 |
| 20260903210806 | 43 | 270 | 1.0 | 2.0 | 0.00 | 0.03 | 0.03 | 82 | 1019.2 |
| 20260903210306 | 43 | 0 | 1.0 | 2.0 | 0.00 | 0.03 | 0.03 | 82 | 1019.2 |
| 20260903205807 | 43 | 315 | 1.0 | 2.0 | 0.00 | 0.03 | 0.03 | 82 | 1019.0 |
| 20260903205307 | 43 | 66 | 1.0 | 1.0 | 0.00 | 0.03 | 0.03 | 81 | 1018.9 |
| 20260903204307 | 43 | 338 | 1.0 | 2.0 | 0.00 | 0.03 | 0.03 | 81 | 1018.8 |
| 20260903203807 | 43 | 316 | 1.0 | 2.0 | 0.00 | 0.03 | 0.03 | 81 | 1019.0 |
| 20260903203307 | 43 | 338 | 1.0 | 2.0 | 0.00 | 0.03 | 0.03 | 81 | 1018.9 |
| 20260903202306 | 43 | 338 | 1.0 | 1.0 | 0.00 | 0.03 | 0.03 | 80 | 1019.0 |
| 20260903201806 | 43 | 338 | 1.0 | 1.0 | 0.00 | 0.03 | 0.03 | 80 | 1019.0 |
| 20260903201307 | 43 | 295 | 1.0 | 1.0 | 0.00 | 0.03 | 0.03 | 80 | 1018.9 |
| 20260903200306 | 43 | 337 | 1.0 | 1.0 | 0.00 | 0.03 | 0.03 | 81 | 1018.9 |
| 20260903195806 | 43 | 359 | 1.0 | 2.0 | 0.00 | 0.03 | 0.03 | 81 | 1019.0 |
| 20260903195307 | 43 | 359 | 1.0 | 2.0 | 0.00 | 0.03 | 0.03 | 81 | 1018.8 |
| 20260903194808 | 43 | 359 | 0.0 | 1.0 | 0.00 | 0.03 | 0.03 | 81 | 1018.8 |
| 20260903194307 | 43 | 316 | 0.0 | 1.0 | 0.00 | 0.03 | 0.03 | 81 | 1018.7 |
| 20260903193807 | 43 | 315 | 0.0 | 1.0 | 0.00 | 0.03 | 0.03 | 81 | 1018.9 |
| 20260903193307 | 44 | 315 | 0.0 | 0.0 | 0.00 | 0.03 | 0.03 | 81 | 1018.7 |
| 20260903192806 | 44 | 316 | 0.0 | 1.0 | 0.00 | 0.03 | 0.03 | 82 | 1018.9 |
| 20260903192308 | 44 | 292 | 1.0 | 2.0 | 0.00 | 0.03 | 0.03 | 82 | 1018.7 |
| 20260903191308 | 44 | 359 | 0.0 | 2.0 | 0.00 | 0.03 | 0.03 | 83 | 1018.7 |
| 20260903185807 | 43 | 359 | 0.0 | 2.0 | 0.00 | 0.03 | 0.03 | 83 | 1018.8 |
| 20260903185306 | 44 | 292 | 0.0 | 1.0 | 0.00 | 0.03 | 0.03 | 83 | 1018.8 |
| 20260903183806 | 43 | 291 | 1.0 | 2.0 | 0.00 | 0.03 | 0.03 | 84 | 1018.5 |
| 20260903183307 | 42 | 270 | 0.0 | 2.0 | 0.00 | 0.03 | 0.03 | 84 | 1018.6 |
| 20260903182806 | 42 | 357 | 0.0 | 2.0 | 0.00 | 0.03 | 0.03 | 84 | 1018.7 |
| 20260903182307 | 42 | 339 | 0.0 | 1.0 | 0.00 | 0.03 | 0.03 | 84 | 1018.6 |
| 20260903181306 | 43 | 338 | 0.0 | 0.0 | 0.00 | 0.03 | 0.03 | 84 | 1018.6 |
| 20260903180307 | 43 | 338 | 1.0 | 1.0 | 0.00 | 0.03 | 0.03 | 85 | 1018.6 |
| 20260903175808 | 42 | 339 | 0.0 | 1.0 | 0.00 | 0.03 | 0.03 | 86 | 1018.7 |
| 20260903175307 | 42 | 338 | 0.0 | 1.0 | 0.00 | 0.03 | 0.03 | 86 | 1018.7 |
| 20260903174808 | 42 | 294 | 0.0 | 1.0 | 0.00 | 0.03 | 0.03 | 86 | 1018.6 |
| 20260903174307 | 41 | 291 | 0.0 | 1.0 | 0.00 | 0.03 | 0.03 | 86 | 1018.7 |
| 20260903173807 | 41 | 338 | 0.0 | 1.0 | 0.00 | 0.03 | 0.03 | 86 | 1018.7 |
| 20260903172307 | 42 | 315 | 0.0 | 1.0 | 0.00 | 0.03 | 0.03 | 86 | 1018.6 |
| 20260903171307 | 42 | 316 | 0.0 | 1.0 | 0.00 | 0.03 | 0.03 | 86 | 1019.0 |
| 20260903170307 | 42 | 292 | 0.0 | 1.0 | 0.00 | 0.03 | 0.03 | 86 | 1019.0 |
| 20260903165807 | 42 | 314 | 0.0 | 1.0 | 0.00 | 0.03 | 0.03 | 85 | 1019.0 |
| 20260903165306 | 42 | 295 | 0.0 | 1.0 | 0.00 | 0.03 | 0.03 | 85 | 1019.1 |
| 20260903164807 | 42 | 338 | 0.0 | 0.0 | 0.00 | 0.03 | 0.03 | 85 | 1019.0 |
| 20260903163806 | 42 | 338 | 0.0 | 0.0 | 0.00 | 0.03 | 0.03 | 84 | 1019.1 |
| 20260903163307 | 43 | 338 | 0.0 | 1.0 | 0.00 | 0.03 | 0.03 | 84 | 1019.2 |
| 20260903162806 | 43 | 339 | 0.0 | 1.0 | 0.00 | 0.03 | 0.03 | 84 | 1019.3 |
| 20260903162308 | 43 | 0 | 1.0 | 1.0 | 0.00 | 0.03 | 0.03 | 84 | 1019.3 |
| 20260903161306 | 43 | 338 | 1.0 | 2.0 | 0.00 | 0.03 | 0.03 | 84 | 1019.4 |
| 20260903160806 | 43 | 338 | 1.0 | 1.0 | 0.00 | 0.03 | 0.03 | 84 | 1019.5 |
| 20260903160306 | 43 | 21 | 1.0 | 1.0 | 0.00 | 0.03 | 0.03 | 84 | 1019.6 |
| 20260903155807 | 43 | 338 | 0.0 | 1.0 | 0.00 | 0.03 | 0.03 | 84 | 1019.5 |
| 20260903155306 | 43 | 338 | 0.0 | 0.0 | 0.00 | 0.03 | 0.03 | 83 | 1019.6 |
| 20260903154807 | 44 | 338 | 0.0 | 1.0 | 0.00 | 0.03 | 0.03 | 83 | 1019.6 |
| 20260903154307 | 44 | 0 | 0.0 | 0.0 | 0.00 | 0.03 | 0.03 | 83 | 1019.3 |
| 20260903153806 | 44 | 0 | 0.0 | 1.0 | 0.00 | 0.03 | 0.03 | 83 | 1019.5 |
| 20260903153306 | 44 | 0 | 0.0 | 1.0 | 0.00 | 0.03 | 0.03 | 83 | 1019.6 |
| 20260903152807 | 44 | 0 | 0.0 | 0.0 | 0.00 | 0.03 | 0.03 | 82 | 1019.3 |
| 20260903152307 | 44 | 0 | 0.0 | 1.0 | 0.00 | 0.03 | 0.03 | 82 | 1019.4 |
| 20260903151806 | 45 | 0 | 0.0 | 1.0 | 0.00 | 0.03 | 0.03 | 82 | 1019.4 |
| 20260903150807 | 45 | 2 | 0.0 | 1.0 | 0.00 | 0.03 | 0.03 | 82 | 1019.5 |
| 20260903150306 | 45 | 45 | 0.0 | 1.0 | 0.00 | 0.03 | 0.03 | 82 | 1019.5 |
| 20260903145807 | 45 | 68 | 0.0 | 0.0 | 0.00 | 0.03 | 0.03 | 82 | 1019.6 |